sat.trackr.live / text

‹ back to catalog

STARLINK-35189

NORAD 65676 · 2025-212A

PAYLOAD ACTIVE UNKNOWN

§ Identity

Operator
Country
US
Launch date
2025-09-21
Launch site
AFETR
Launch vehicle
Mass (kg)
RCS (m²)

Purposes: comms

External: N2YO · Heavens-Above · Gunter

§ Orbital elements

Epoch: 2026-05-24T22:57:20.212416Z

Period
94.10 min
Inclination
53.1605°
Eccentricity
0.0001045
Mean motion
15.30207406 rev/d
Perigee alt
474.5 km
Apogee alt
475.9 km
Semi-major
6,853.3 km
B*
4.3968e-4
RAAN
351.1913°
Arg perigee
92.7797°
Mean anomaly
267.3323°
Rev number
3,887

§ Raw data

STARLINK-351891 65676U 25212A   26144.95648394  .00012688  00000+0  43968-3 0  99942 65676  53.1605 351.1913 0001045  92.7797 267.3323 15.30207406 38876

JSON: /api/v1/satellites/65676 · /tle

For live sub-satellite position, see the globe view (requires WebGL).

§ Visibility from observer

Set your observer location to see the next 7 days of passes ≥ 10°. The values pass through the URL so the page stays shareable.

No JS? Fill the form by hand. The geolocation button needs JavaScript.